EDT,Max TemperatureF,Mean TemperatureF,Min TemperatureF,Max Dew PointF,MeanDew PointF,Min DewpointF,Max Humidity, Mean Humidity, Min Humidity, Max Sea Level PressureIn, Mean Sea Level PressureIn, Min Sea Level PressureIn, Max VisibilityMiles, Mean VisibilityMiles, Min VisibilityMiles, Max Wind SpeedMPH, Mean Wind SpeedMPH, Max Gust SpeedMPH,PrecipitationIn, CloudCover, Events, WindDirDegrees
2013-4-1,51,44,37,42,33,25,79,59,43,29.97,29.90,29.84,10,10,10,28,13,44,0.00,4,,289
2013-4-2,46,38,31,27,15,5,68,42,19,30.11,30.05,29.97,10,10,10,20,6,25,0.00,2,,304
2013-4-3,51,40,29,14,7,-3,45,28,12,30.26,30.18,30.11,10,10,10,12,6,18,0.00,0,,328
2013-4-4,39,34,30,32,21,5,98,68,24,30.24,30.14,29.93,10,6,0,6,1,,0.37,6,Fog-Rain-Snow,90
2013-4-5,51,42,32,36,32,27,98,72,40,30.06,29.95,29.89,10,8,1,16,5,25,0.00,4,,313
2013-4-6,58,47,36,30,27,25,69,46,29,30.21,30.15,30.05,10,10,10,12,5,18,0.00,0,,145
2013-4-7,63,52,41,38,34,28,70,52,35,30.20,30.16,30.10,10,10,10,10,4,17,0.00,1,,156
2013-4-8,70,57,44,44,40,37,75,53,33,30.18,30.13,30.09,10,10,10,10,2,21,0.00,1,,164
2013-4-9,75,64,53,48,44,41,69,50,29,30.26,30.19,30.14,10,10,10,9,2,,0.00,0,,180
2013-4-10,78,66,55,50,48,44,77,51,30,30.18,30.12,30.04,10,10,10,9,3,,0.00,0,,195
2013-4-11,72,63,54,58,50,44,93,61,40,30.04,29.93,29.78,10,10,2,12,3,24,0.17,3,Rain,152
2013-4-12,62,56,49,59,45,29,93,66,30,29.89,29.77,29.68,10,9,2,28,12,36,0.78,4,Rain,259
2013-4-13,62,54,45,32,27,22,58,39,23,30.07,29.96,29.85,10,10,10,26,15,45,0.00,0,,288
2013-4-14,67,54,42,41,31,25,61,40,25,30.13,30.08,30.04,10,10,10,12,4,22,0.00,2,Rain,161
2013-4-15,53,50,48,50,48,41,95,92,63,30.25,30.12,30.03,10,3,0,10,3,17,0.01,8,Fog-Rain,137
2013-4-16,70,60,51,57,53,50,95,80,56,30.33,30.27,30.24,10,6,0,9,2,,0.00,5,Fog-Rain,145
2013-4-17,63,59,55,55,53,50,91,78,66,30.33,30.27,30.22,10,10,7,16,2,30,0.30,4,Rain,297
2013-4-18,68,62,56,56,53,49,90,74,51,30.21,30.15,30.02,10,10,10,12,3,23,0.00,7,Rain,154
2013-4-19,62,52,41,58,52,31,93,86,65,30.01,29.86,29.77,10,8,2,25,10,37,0.35,7,Rain,186
2013-4-20,51,42,32,31,21,16,68,45,27,30.28,30.09,29.91,10,10,10,28,14,46,0.00,1,,320
2013-4-21,52,44,37,30,24,17,61,45,35,30.44,30.38,30.28,10,10,10,10,3,9,0.00,1,,126
2013-4-22,55,45,35,32,28,19,85,55,33,30.41,30.33,30.24,10,10,10,8,4,,0.00,3,,113
2013-4-23,63,48,32,42,33,19,77,54,36,30.28,30.20,30.13,10,10,10,8,1,,0.00,0,,143
2013-4-24,67,57,47,53,45,41,88,66,45,30.14,30.08,30.02,10,10,4,25,4,33,0.04,2,Rain,174
2013-4-25,59,46,34,42,25,10,82,49,15,30.32,30.22,30.11,10,10,10,18,8,29,0.05,2,,308
2013-4-26,60,50,39,32,27,22,55,41,30,30.43,30.37,30.32,10,10,10,12,6,18,0.00,1,,68
2013-4-27,55,51,46,48,40,30,95,69,41,30.39,30.33,30.26,10,8,0,6,1,,0.00,8,Rain,144
2013-4-28,49,47,45,48,45,42,95,93,84,30.25,30.16,30.04,10,3,0,9,4,16,0.32,8,Fog-Rain,148
2013-4-29,63,56,48,53,49,42,95,82,47,30.08,30.05,30.01,10,8,0,10,2,,0.00,7,Fog-Rain,198
2013-4-30,66,59,52,53,51,49,94,80,53,30.24,30.14,30.05,10,8,0,10,2,17,0.00,7,Fog,136